SCP
0 0 0 0 0 0 0 0 -0 -0 0 0 0 0 0 0 0 0 0 0 0 0
0 0 0 0 0 0 0 0 0 0 0 0 0 0 0 0 0 0 0 0 0 0
0 0 0 0 0 0 0 0 0 0 0 0 0 0 0 0 0 0 0 0 0 0
0 0 0 0 0 0 0 0 0 0 0 0 0 0 0 0 0 0 0 0 0 0
0 0 0 0 0 0 0 0 0 0 0 0 0 0 0 0 0 0 0 0 0 0
1 0 0 0 0 0 0 0 0 0 0 0 0 0 0 0 0 0 0 0 0 0
1 1 1 1 1 1 1 0 0 0 0 0 0 0 0 0 0 0 0 0 0 0
0 0 0 0 0 0 1 1 1 0 0 0 0 0 0 0 0 0 0 0 0 0
0 0 0 0 0 0 0 0 1 1 1 1 0 0 0 0 0 0 0 0 0 0
0 0 0 0 0 0 0 1 1 1 2 2 1 0 0 0 0 0 0 0 0 0
0 0 0 0 0 0 0 0 0 1 1 0 0 0 0 0 1 1 0 0 1 1
-0 -0 0 0 0 0 0 0 0 0 0 0 0 0 0 0 1 1 1 1 1 1
0 0 0 0 0 0 0 0 0 0 0 0 0 0 0 0 0 0 0 0 0 0
0 0 0 0 0 -0 -0 0 0 0 0 0 0 0 0 0 0 0 0 0 0 0
Wind_Speed_500mb
23 18 10 12 10 12 18 16 18 21 19 17 18 20 19 18 21 17 13 9 8 3
28 24 16 15 14 16 18 20 18 18 18 16 16 15 19 24 21 22 21 17 15 13
24 26 20 16 13 12 22 21 21 20 18 17 16 13 14 19 19 24 24 23 23 21
27 29 25 18 14 10 18 21 16 17 17 18 17 17 15 20 23 23 27 28 26 25
33 30 34 27 21 19 16 18 16 17 17 15 19 21 21 20 22 24 27 28 30 27
37 33 35 36 28 24 23 23 21 20 19 19 18 17 20 20 21 22 22 24 23 22
42 38 34 33 33 29 29 29 26 24 22 21 22 20 16 18 18 19 21 22 22 23
35 36 32 31 31 29 26 28 29 27 26 25 24 23 21 18 22 22 25 26 25 26
34 35 35 30 30 29 27 28 31 34 33 32 32 31 27 28 28 28 30 30 31 33
23 20 18 31 28 23 19 23 27 27 28 30 33 32 35 34 34 34 33 32 33 33
17 12 15 15 15 16 11 17 21 16 16 23 26 27 28 28 31 36 36 38 39 39
11 9 6 10 10 10 6 7 14 16 21 21 16 14 17 18 21 28 33 37 41 45
8 8 10 10 9 7 8 15 6 13 22 21 20 15 16 16 19 19 22 29 35 42
12 10 9 8 8 11 11 9 12 11 11 10 8 5 5 7 11 14 18 23 21 21
Wind_Direction_500mb
224 226 228 215 232 238 232 217 207 208 204 213 220 231 230 217 212 220 228 240 252 286
224 229 244 243 241 224 231 220 224 215 213 213 223 234 230 224 220 225 230 241 250 256
226 227 240 250 253 222 209 217 213 219 212 210 215 216 222 213 230 231 239 247 247 251
231 228 230 234 225 213 202 219 218 206 212 221 229 228 228 227 234 238 243 245 253 253
236 228 224 226 221 222 199 191 197 207 227 232 240 245 243 238 234 241 248 251 249 250
237 232 222 225 229 231 233 221 221 226 233 231 232 248 245 240 236 239 243 247 250 243
229 225 220 217 224 231 236 237 238 232 233 227 228 232 241 244 240 239 244 249 250 247
203 203 203 201 208 220 229 234 236 235 233 235 232 233 241 255 257 258 258 255 253 260
194 200 205 205 205 211 224 240 238 234 234 238 242 243 240 246 255 256 261 265 262 269
205 186 190 209 210 219 233 243 235 228 224 233 239 244 247 251 255 257 260 264 266 269
206 199 186 204 221 226 229 226 218 217 221 226 236 243 244 248 257 263 264 262 264 266
187 204 226 227 207 212 214 201 207 240 241 244 237 247 267 275 273 269 268 269 268 266
167 148 166 155 151 147 159 188 190 231 220 226 249 255 276 287 284 273 263 261 260 265
150 144 132 110 97 102 112 103 121 154 169 171 197 232 257 273 302 293 293 297 297 292
Wind_Speed_850mb
23 18 10 12 10 12 18 16 18 21 19 17 18 20 19 18 21 17 13 9 8 3
28 24 16 15 14 16 18 20 18 18 18 16 16 15 19 24 21 22 21 17 15 13
24 26 20 16 13 12 22 21 21 20 18 17 16 13 14 19 19 24 24 23 23 21
27 29 25 18 14 10 18 21 16 17 17 18 17 17 15 20 23 23 27 28 26 25
33 30 34 27 21 19 16 18 16 17 17 15 19 21 21 20 22 24 27 28 30 27
37 33 35 36 28 24 23 23 21 20 19 19 18 17 20 20 21 22 22 24 23 22
42 38 34 33 33 29 29 29 26 24 22 21 22 20 16 18 18 19 21 22 22 23
35 36 32 31 31 29 26 28 29 27 26 25 24 23 21 18 22 22 25 26 25 26
34 35 35 30 30 29 27 28 31 34 33 32 32 31 27 28 28 28 30 30 31 33
23 20 18 31 28 23 19 23 27 27 28 30 33 32 35 34 34 34 33 32 33 33
17 12 15 15 15 16 11 17 21 16 16 23 26 27 28 28 31 36 36 38 39 39
11 9 6 10 10 10 6 7 14 16 21 21 16 14 17 18 21 28 33 37 41 45
8 8 10 10 9 7 8 15 6 13 22 21 20 15 16 16 19 19 22 29 35 42
12 10 9 8 8 11 11 9 12 11 11 10 8 5 5 7 11 14 18 23 21 21
Wind_Direction_850mb
224 226 228 215 232 238 232 217 207 208 204 213 220 231 230 217 212 220 228 240 252 286
224 229 244 243 241 224 231 220 224 215 213 213 223 234 230 224 220 225 230 241 250 256
226 227 240 250 253 222 209 217 213 219 212 210 215 216 222 213 230 231 239 247 247 251
231 228 230 234 225 213 202 219 218 206 212 221 229 228 228 227 234 238 243 245 253 253
236 228 224 226 221 222 199 191 197 207 227 232 240 245 243 238 234 241 248 251 249 250
237 232 222 225 229 231 233 221 221 226 233 231 232 248 245 240 236 239 243 247 250 243
229 225 220 217 224 231 236 237 238 232 233 227 228 232 241 244 240 239 244 249 250 247
203 203 203 201 208 220 229 234 236 235 233 235 232 233 241 255 257 258 258 255 253 260
194 200 205 205 205 211 224 240 238 234 234 238 242 243 240 246 255 256 261 265 262 269
205 186 190 209 210 219 233 243 235 228 224 233 239 244 247 251 255 257 260 264 266 269
206 199 186 204 221 226 229 226 218 217 221 226 236 243 244 248 257 263 264 262 264 266
187 204 226 227 207 212 214 201 207 240 241 244 237 247 267 275 273 269 268 269 268 266
167 148 166 155 151 147 159 188 190 231 220 226 249 255 276 287 284 273 263 261 260 265
150 144 132 110 97 102 112 103 121 154 169 171 197 232 257 273 302 293 293 297 297 292